Welcome to the New NWS' Forecast!
Most changes are behind the scenes, but click here for differences you might notice.

Regional Weather Roundup (RWR)

Issued by Gray - Portland, ME (GYX)

                            
053 
ASUS41 KGYX 230505
RWRGYX
WEATHER ROUNDUP FOR MAINE AND NEW HAMPSHIRE
NATIONAL WEATHER SERVICE GRAY ME
100 AM EDT MON JUL 23 2018

MEZ002-005-006-010-012-015-018-020-021-024-026-027-029-230600-
MAINE
  
CITY           SKY/WX    TMP DP  RH WIND       PRES   REMARKS
PORTLAND       LGT RAIN  70  70 100 S7        30.21S FOG              
SANFORD        CLOUDY    69  69 100 CALM      30.20F FOG              
BAR HARBOR     CLOUDY    70  68  93 S7        30.27S                  
WISCASSET      CLOUDY    69  69 100 S7        30.24F                  
ROCKLAND       FOG       64  64 100 S5        30.25S VSB 1            
FRYEBURG       CLOUDY    66  66 100 CALM      30.21F FOG              
LEWISTONAUBURN LGT RAIN  69  69 100 SE3       30.22S FOG              
AUGUSTA        LGT RAIN  69  69 100 SE7       30.23F FOG              
WATERVILLE     LGT RAIN  69  69 100 CALM      30.21F FOG              
BANGOR         DRIZZLE   70  69  97 S5        30.25S FOG              
GREENVILLE       N/A     67  67 100 SE6       30.24F                  
MILLINOCKET    CLOUDY    71  68  90 VRB5      30.25F                  
HOULTON        CLOUDY    71  71 100 VRB7      30.24F                  
PRESQUE ISLE   LGT RAIN  71  70  96 SE6       30.23F                  
FRENCHVILLE    LGT RAIN  70  66  87 SE10      30.22F                  
CARIBOU        CLOUDY    72  70  93 S12       30.22F                  
$$

NHZ002-005-008-009-011-012-014-230600-
NEW HAMPSHIRE
  
CITY           SKY/WX    TMP DP  RH WIND       PRES   REMARKS
PORTSMOUTH     CLOUDY    70  69  99 SE10      30.17S FOG              
ROCHESTER      FOG       70  70 100 SE6       30.18F VSB 3/4          
NASHUA         LGT RAIN  73  73 100 SE8       30.16S                  
MANCHESTER     CLOUDY    74  72  93 SE12      30.14F FOG              
CONCORD        CLOUDY    71  70  96 SE5       30.16F                  
LACONIA        CLOUDY    69  69 100 NE6       30.19S                  
PLYMOUTH       DRIZZLE   67  66  95 CALM      30.18S                  
BERLIN         LGT RAIN  69  68  96 SE3       30.22S                  
WHITEFIELD     LGT RAIN  70  67  90 E6        30.20S                  
JAFFREY        CLOUDY    73  72  96 SE5       30.17F                  
KEENE          CLOUDY    72  70  93 VRB5      30.13F                  
LEBANON        CLOUDY    71  67  87 NE5       30.14F                  
MT WASHINGTON  SHOWER    55  55 100 S38G51      N/A  VSB 1/16         
$$

VTZ005-007-008-230600-
VERMONT
  
CITY           SKY/WX    TMP DP  RH WIND       PRES   REMARKS
ST JOHNSBURY     N/A     68  68 100 MISG      30.16S                  
MONTPELIER     CLOUDY    69  69 100 SE3       30.20F                  
BURLINGTON     FAIR      75  66  73 SE7       30.09S                  
$$

MAZ007-012-024-CTZ003-RIZ002-NYZ038-NYZ072-230600-
SOUTHERN NEW ENGLAND AND NY
  
CITY           SKY/WX    TMP DP  RH WIND       PRES   REMARKS
BOSTON         CLOUDY    75  72  90 SE12      30.16S                  
NANTUCKET      MOCLDY    67  67 100 SE14      30.20S FOG              
PROVIDENCE     CLOUDY    74  72  93 S15G28    30.15F                  
HARTFORD       CLOUDY    73  72  96 SE7       30.09S                  
ALBANY         LGT RAIN  74  70  87 CALM      30.07R                  
NEW YORK CITY  CLOUDY    78  74  87 SE13      30.02S                  
$$

ANZ081-ANZ082-ANZ150-NHZ014-MEZ023>029-230600-
COASTAL MARINE OBSERVATIONS
  
STATION/POSITION TIME  TEMP    WIND        PRES    WAVE
                       AIR SEA DIR/SP/G            HT/PER
                 (UTC) (F)     (DEG/KT/KT) (MB)    (FT/S)
MOUNT DESERT ROC 0500   64     140/ 19/ 19 1025.1F
MATINICUS ROCK   0400   63     160/ 22/ 22 1023.9S
ISLE OF SHOALS   0400   69     140/ 19/ 20 1021.5R
JEFFREYS LEDGE   0436      68                N/A     5/ 6
$$

.............KEY..............
   WCI - WIND CHILL
   TC  - TEMPERATURE IN CELSIUS
   VSB - VISIBILITY IN MILES
   HX  - HEAT INDEX
   FAIR- INDICATES FEW OR NO CLOUDS BELOW 12,000 FT, WITH NO 
         SIGNIFICANT WEATHER AND/OR OBSTRUCTIONS TO VISIBILITY.